This demonstration page uses our WeatherBlox Daily Observations layout. Learn more.

Left ArrowRight Arrow

34.02893, -84.19858

Hourly Observations for November 9, 2019

Temp ( °F °C ) Dew Point ( °F °C ) Humidity (%) Winds ( mph kmh ) Pressure ( in mb ) Visibility ( mi km ) Precip ( " mm )
12:53 am 00:53 Clear 39 3.9 34 1.1 82 82 ENE 3 6 30.26 1025 10 16 0.00 0.00
1:53 am 01:53 Clear 39 3.9 32 0 76 76 VRB 5 7 30.27 1025 10 16 0.00 0.00
2:53 am 02:53 Clear 38 3.3 30 -1.1 73 73 VRB 3 6 30.27 1025 10 16 0.00 0.00
3:53 am 03:53 Clear 37 2.8 28 -2.2 70 70 VRB 5 7 30.27 1025 10 16 0.00 0.00
4:53 am 04:53 Clear 36 2.2 27 -2.8 70 70 E 3 6 30.28 1025 10 16 0.00 0.00
5:53 am 05:53 Clear 35 1.7 26 -3.3 70 70 VRB 5 7 30.29 1026 10 16 0.00 0.00
6:53 am 06:53 Clear 34 1.1 26 -3.3 73 73 VRB 3 6 30.31 1026 10 16 0.00 0.00
7:53 am 07:53 Sunny 35 1.7 25 -3.9 67 67 E 5 7 30.33 1027 10 16 0.00 0.00
8:53 am 08:53 Sunny 39 3.9 25 -3.9 57 57 Calm 30.34 1028 10 16 0.00 0.00
9:53 am 09:53 Sunny 42 5.6 25 -3.9 51 51 ENE 6 9 30.34 1027 10 16 0.00 0.00
10:53 am 10:53 Sunny 45 7.2 25 -3.9 46 46 ENE 7 11 30.32 1027 10 16 0.00 0.00
11:53 am 11:53 Sunny 48 8.9 24 -4.4 39 39 Calm 30.30 1026 10 16 0.00 0.00
12:53 pm 12:53 Sunny 49 9.4 26 -3.3 41 41 Calm 30.26 1025 10 16 0.00 0.00
1:53 pm 13:53 Sunny 51 10.6 27 -2.8 39 39 NNE 3 6 30.22 1023 10 16 0.00 0.00
2:53 pm 14:53 Sunny 52 11.1 29 -1.7 41 41 Calm 30.20 1023 10 16 0.00 0.00
3:53 pm 15:53 Sunny 53 11.7 29 -1.7 40 40 Calm 30.20 1023 10 16 0.00 0.00
4:53 pm 16:53 Sunny 52 11.1 29 -1.7 41 41 Calm 30.21 1023 10 16 0.00 0.00
5:53 pm 17:53 Clear 45 7.2 35 1.7 68 68 SSE 3 6 30.21 1023 10 16 0.00 0.00
6:53 pm 18:53 Clear 41 5 36 2.2 82 82 Calm 30.23 1024 10 16 0.00 0.00
7:53 pm 19:53 Clear 40 4.4 35 1.7 83 83 Calm 30.23 1024 10 16 0.00 0.00
8:53 pm 20:53 Clear 38 3.3 35 1.7 89 89 Calm 30.24 1024 10 16 0.00 0.00
9:53 pm 21:53 Clear 37 2.8 35 1.7 93 93 Calm 30.24 1024 10 16 0.00 0.00
10:53 pm 22:53 Clear 37 2.8 34 1.1 89 89 Calm 30.24 1024 10 16 0.00 0.00
11:53 pm 23:53 Clear 36 2.2 34 1.1 93 93 Calm 30.24 1024 8 13 0.00 0.00

Powered by AerisWeather